This is the latest recevied weather packets stored in our database for station/object DB0OHL. If no packets are shown the sender has not sent any weather packets the latest 10 day(s).
| Time | Temp. | Humidity | Pressure | Rain* | Wind** | Luminosity | Snow |
|---|---|---|---|---|---|---|---|
| 1778189767 | 7.78° C | 98% | 1016.7 hPa | 0 mm | - | - | - |
| 1778189164 | 7.78° C | 98% | 1016.8 hPa | 0 mm | - | - | - |
| 1778188562 | 8.33° C | 97% | 1016.8 hPa | 0 mm | - | - | - |
| 1778187960 | 8.33° C | 96% | 1016.6 hPa | 0 mm | - | - | - |
| 1778187357 | 8.33° C | 96% | 1016.7 hPa | 0 mm | - | - | - |
| 1778186754 | 8.33° C | 95% | 1016.5 hPa | 0 mm | - | - | - |
| 1778186152 | 8.33° C | 94% | 1016.4 hPa | 0 mm | - | - | - |
| 1778185549 | 8.89° C | 93% | 1016.4 hPa | 0 mm | - | - | - |
| 1778184947 | 8.89° C | 92% | 1016.2 hPa | 0 mm | - | - | - |
| 1778184344 | 8.89° C | 92% | 1016.1 hPa | 0 mm | - | - | - |
| 1778183742 | 8.89° C | 91% | 1016 hPa | 0 mm | - | - | - |
| 1778183139 | 9.44° C | 89% | 1015.9 hPa | 0 mm | - | - | - |
| 1778182536 | 9.44° C | 88% | 1015.9 hPa | 0 mm | - | - | - |
| 1778181934 | 9.44° C | 87% | 1015.7 hPa | 0 mm | - | - | - |
| 1778181331 | 10° C | 86% | 1015.7 hPa | 0 mm | - | - | - |
| 1778180729 | 10.56° C | 85% | 1015.6 hPa | 0 mm | - | - | - |
| 1778180126 | 10.56° C | 84% | 1015.6 hPa | 0 mm | - | - | - |
| 1778179524 | 10.56° C | 83% | 1015.5 hPa | 0 mm | - | - | - |
| 1778178921 | 11.11° C | 82% | 1015.5 hPa | 0 mm | - | - | - |
| 1778178319 | 11.67° C | 80% | 1015.4 hPa | 0 mm | - | - | - |
| 1778177716 | 11.67° C | 80% | 1015.3 hPa | 0 mm | - | - | - |
| 1778177174 | 12.22° C | 79% | 1015.3 hPa | 0 mm | - | - | - |
| 1778176571 | 12.22° C | 78% | 1015.1 hPa | 0 mm | - | - | - |
| 1778175969 | 12.78° C | 77% | 1015 hPa | 0 mm | - | - | - |
| 1778175366 | 13.33° C | 76% | 1015 hPa | 0 mm | - | - | - |
* Rain latest hour (hover to see other rain measurements)
** Current wind speed in m/s (hover to see current wind gust speed)